Theta_e
305 305 305 306 308 308 310 306 303 303 302 302 301 301 301 301 301 301 301 303 304 303 303 303 304 304 305 308 310 315 324 328 331 333 333 328 331 330 326 329 324 324 326 326 326
311 310 309 311 312 312 313 313 309 306 307 305 303 302 301 301 301 302 304 303 302 302 302 302 302 303 306 307 308 313 316 318 323 327 330 330 329 330 325 325 323 323 322 324 325
311 311 312 313 313 313 314 314 314 314 312 311 312 310 303 301 300 303 303 304 303 301 301 302 302 304 306 305 307 311 314 315 317 320 323 325 325 323 324 328 326 327 326 320 323
312 314 314 314 314 314 314 314 314 314 315 314 314 313 310 300 303 303 304 304 302 302 301 302 303 306 308 307 306 308 310 311 314 316 318 319 320 318 319 324 326 322 321 319 320
313 313 313 313 314 314 314 314 314 314 315 315 315 313 306 301 302 304 303 302 301 301 301 302 305 306 307 307 307 308 308 308 310 312 313 313 314 317 316 315 316 315 315 316 317
308 309 309 310 311 312 314 314 314 314 314 314 315 312 303 301 307 303 301 301 300 300 300 301 304 306 307 309 310 310 310 309 310 310 311 311 312 313 312 312 313 313 313 313 313
296 297 297 298 298 299 301 309 313 314 314 314 314 311 302 309 310 306 301 300 300 300 300 301 302 306 308 309 309 309 310 311 312 311 312 310 313 313 311 312 314 314 314 313 312
297 297 297 297 298 298 298 298 299 310 313 313 313 304 304 311 309 305 301 300 299 299 300 301 302 305 306 307 308 309 309 311 312 311 311 312 317 318 314 313 313 314 314 313 312
297 297 297 297 297 298 298 298 298 300 311 311 305 303 302 306 304 303 300 299 299 299 299 301 303 305 305 308 308 309 308 310 310 310 308 311 315 315 310 310 311 312 311 311 310
297 297 296 297 296 297 297 297 299 305 308 305 302 301 305 305 303 301 300 298 298 298 299 300 302 305 306 308 307 307 308 308 308 310 307 310 310 312 311 309 310 311 311 311 310
294 294 293 293 294 297 297 299 304 305 303 303 304 303 302 304 303 306 304 300 299 299 301 300 303 303 305 306 307 307 307 307 308 307 307 309 311 311 310 309 309 308 308 309 309
292 291 290 291 295 292 297 300 296 294 298 300 303 305 308 310 308 307 302 301 300 302 301 300 302 305 304 305 306 306 306 306 307 306 304 307 307 307 307 308 307 307 307 307 308
288 289 288 289 294 290 296 296 293 295 298 302 302 303 305 306 307 308 303 300 304 302 301 307 309 303 302 303 304 305 306 306 306 305 305 304 306 307 308 308 307 306 306 306 306
289 290 289 288 290 290 293 291 292 295 302 303 304 303 303 307 307 308 306 304 300 305 302 302 307 302 301 302 303 304 305 305 305 305 304 302 305 307 308 307 305 306 305 305 305
288 288 288 289 291 292 291 291 292 298 300 301 302 299 299 301 298 298 300 301 306 300 301 305 300 300 304 304 302 304 303 304 305 305 304 303 302 306 305 306 307 308 307 307 306
289 288 288 289 290 290 290 292 295 303 301 301 298 296 296 299 299 297 297 297 298 301 299 303 297 299 301 298 302 300 301 301 301 302 304 304 303 308 309 309 308 307 306 307 306
289 288 288 287 290 288 290 293 299 300 298 294 293 293 295 298 299 298 298 299 301 303 305 303 300 298 298 299 299 301 302 304 305 305 307 305 303 307 307 307 306 308 308 305 305
288 288 288 288 288 289 289 295 295 292 293 291 292 293 296 298 297 298 299 300 300 299 302 306 306 300 299 302 302 300 303 308 311 310 308 299 303 307 306 306 305 303 303 304 305
288 288 288 288 288 289 291 293 292 289 290 292 293 292 293 293 295 298 299 299 300 300 302 304 303 298 297 300 302 301 302 303 305 300 306 306 304 305 306 307 306 305 304 305 303
287 287 288 288 288 289 292 290 289 289 289 291 291 292 293 293 292 293 295 298 294 296 297 299 304 298 297 297 299 301 302 302 303 308 308 308 308 309 308 307 303 302 301 300 299
287 288 287 288 288 289 289 288 289 288 289 290 291 292 290 291 291 292 295 297 292 292 295 300 300 300 297 299 301 299 301 302 304 305 308 308 309 303 304 303 301 300 299 298 298
287 289 287 287 288 283 289 288 288 288 288 290 291 290 290 291 290 292 291 292 291 291 293 298 300 301 302 297 296 300 302 302 305 305 303 305 308 302 301 300 301 300 298 297 296
287 287 287 287 288 288 288 288 287 288 289 289 289 289 289 290 290 290 290 291 290 291 293 294 300 303 302 299 296 299 299 300 303 302 310 308 308 300 300 300 299 299 297 296 295
287 288 287 287 286 288 288 288 288 288 288 289 289 288 289 289 289 289 290 290 289 289 292 291 293 297 299 301 300 299 299 300 302 305 305 305 307 302 301 300 298 296 295 294 293
286 287 287 287 287 287 286 287 287 287 288 288 288 288 288 288 288 287 288 290 289 289 289 291 291 293 293 294 297 303 300 299 301 303 305 304 304 304 301 298 295 294 294 293 291
286 286 286 286 286 286 286 286 287 287 287 288 288 288 288 288 288 288 289 289 288 289 289 290 291 291 295 294 297 298 300 305 303 300 302 305 307 298 296 294 293 292 292 291 290
287 287 286 286 286 286 286 286 286 286 287 287 288 288 288 288 288 288 288 288 289 289 289 289 290 292 293 293 295 298 300 301 305 303 304 302 302 300 295 293 291 290 289 288 286
Wind_Speed
14 13 11 11 12 12 14 14 14 13 14 15 17 18 19 20 22 23 27 24 21 18 18 18 16 13 11 8 12 9 9 15 26 26 23 5 11 23 14 18 8 13 15 14 11
13 12 11 12 12 13 15 15 15 15 16 16 17 18 18 21 23 29 29 29 26 19 18 19 16 13 7 5 7 13 13 22 22 20 22 21 17 22 12 17 17 18 20 22 20
13 12 11 11 13 13 14 15 16 17 17 18 19 19 18 18 22 15 8 7 10 14 14 14 12 12 9 8 11 8 17 22 24 25 22 22 17 17 18 23 25 27 25 22 25
15 15 15 14 14 15 15 16 16 18 19 19 19 19 18 13 8 3 4 4 5 9 14 15 12 8 7 10 16 12 17 28 23 21 16 18 19 15 25 32 29 21 22 20 27
20 20 19 20 20 19 20 19 19 19 19 20 21 20 17 10 23 27 23 19 12 12 17 18 15 12 10 6 12 13 18 17 22 26 22 18 19 22 19 28 27 25 24 26 27
25 25 25 25 24 23 22 22 23 24 23 23 22 20 12 9 16 16 17 16 15 14 16 18 9 13 8 7 11 5 15 22 18 23 19 13 22 14 15 36 31 30 33 32 32
25 25 26 27 27 26 26 24 23 23 23 24 23 20 16 27 23 20 18 16 15 15 16 17 19 9 4 8 9 8 13 17 17 20 12 7 20 22 36 35 31 30 32 28 30
28 28 29 30 30 29 26 24 24 25 24 24 22 16 13 20 22 25 23 20 17 16 15 13 17 12 8 6 5 5 5 8 4 8 7 12 28 14 23 23 27 31 28 29 29
28 29 31 32 31 31 28 25 23 22 23 21 13 11 11 16 19 19 20 20 17 16 14 11 11 11 6 10 11 9 15 19 14 10 5 16 21 9 8 12 21 22 21 21 24
28 30 31 33 32 30 27 22 19 17 14 12 14 8 18 12 10 11 13 16 11 14 8 9 9 9 10 11 17 17 17 15 15 5 8 14 27 20 21 16 19 22 26 28 28
30 31 32 33 24 22 25 13 5 4 5 11 6 11 7 15 14 15 17 17 14 10 11 11 9 20 22 25 28 17 15 22 13 4 6 19 27 23 22 29 25 30 33 36 36
32 34 34 33 18 24 18 11 13 11 18 29 37 46 47 34 20 25 21 18 15 17 11 6 22 23 21 22 24 25 24 27 18 11 6 20 34 25 21 26 31 32 35 38 41
35 36 37 36 9 23 16 16 18 18 8 23 30 24 19 27 33 32 32 18 16 17 24 22 26 15 19 17 21 25 27 25 22 9 15 14 30 22 20 30 35 33 37 38 40
35 36 37 34 12 25 9 16 17 12 5 9 3 6 6 10 9 28 36 26 13 25 19 18 28 14 15 22 23 24 19 21 19 8 11 2 16 20 18 15 12 17 26 33 31
32 32 30 28 20 21 25 23 18 2 5 6 5 8 7 6 10 3 17 23 27 13 10 16 9 17 21 25 20 13 6 15 16 16 11 16 8 16 4 5 13 19 25 22 20
29 27 26 28 26 26 28 21 2 3 10 9 10 22 30 16 7 7 5 8 7 10 12 21 3 6 7 1 20 15 8 7 4 5 8 18 13 35 15 12 11 7 7 3 1
32 26 25 26 25 28 26 9 1 5 16 13 16 28 24 24 14 4 5 12 8 8 17 16 20 6 4 6 4 12 10 5 6 6 11 3 13 28 7 11 11 8 6 7 7
33 21 25 26 26 26 19 2 1 13 7 24 20 23 13 19 15 21 6 8 18 8 5 9 9 21 16 20 11 17 16 7 12 10 14 6 13 11 6 12 13 9 11 14 10
33 14 26 25 29 20 9 7 8 16 16 21 24 15 16 20 7 12 12 11 6 15 10 5 8 3 2 6 14 8 13 19 6 1 4 8 11 10 14 14 8 7 5 4 7
31 16 25 29 18 15 7 7 6 13 19 13 11 7 12 17 16 16 12 16 17 19 20 12 15 2 3 3 6 10 6 7 6 8 11 13 16 12 6 5 5 9 10 12 14
26 7 26 23 13 14 6 5 7 22 18 10 13 8 16 14 15 13 7 18 21 22 23 11 9 4 1 10 15 8 9 6 3 6 6 7 6 6 4 7 9 11 14 15 17
16 4 24 19 12 3 6 6 14 11 19 8 9 11 12 17 12 7 14 8 19 21 16 10 7 11 19 1 3 10 14 18 6 8 6 5 4 6 10 10 11 11 14 16 18
10 4 15 14 6 7 8 6 4 10 14 7 7 13 17 13 9 13 18 20 18 16 11 14 5 5 6 2 1 5 14 9 18 3 15 10 9 4 7 9 10 11 13 15 17
8 4 7 6 10 5 9 6 9 15 14 10 11 14 14 13 14 11 23 13 28 27 14 13 6 10 10 16 14 6 8 18 16 11 14 14 19 9 9 7 7 11 12 14 17
8 3 3 5 8 11 4 5 12 12 7 10 10 10 15 9 19 17 18 22 23 14 12 9 10 14 19 21 20 19 9 8 15 22 14 19 17 10 8 8 7 8 11 14 18
6 6 6 12 8 4 4 6 12 13 9 16 16 18 19 14 16 21 19 16 14 20 12 8 11 16 18 20 14 18 15 17 13 19 22 22 23 11 10 11 9 10 13 15 17
12 11 5 8 5 3 5 9 20 24 15 23 19 19 20 22 23 23 26 29 21 18 22 8 8 11 16 19 18 11 2 9 9 12 16 19 19 4 6 10 10 10 14 15 15
Wind_Direction
17 11 3 359 353 347 345 341 332 324 316 309 303 301 301 297 293 286 277 283 274 264 249 239 231 234 230 223 212 205 237 238 246 251 248 261 239 242 247 244 215 213 231 233 237
15 1 359 355 349 345 343 344 338 333 328 324 315 306 301 298 296 285 287 274 265 251 237 231 227 213 190 222 214 214 230 237 242 257 262 262 251 250 246 231 238 238 238 239 240
353 350 351 345 338 335 333 332 330 331 326 325 322 315 305 303 307 283 278 250 243 230 226 224 216 203 203 198 203 229 242 243 253 257 264 262 242 244 242 253 246 247 252 245 239
335 338 332 326 323 321 318 320 320 320 319 319 320 317 304 296 277 284 270 232 234 219 212 209 203 189 228 208 210 240 248 254 259 262 251 247 253 241 242 253 255 263 256 242 249
329 328 324 320 316 313 311 310 310 310 310 311 312 313 300 269 258 271 268 264 251 230 220 207 196 208 224 224 229 235 254 261 258 261 255 258 244 249 247 254 259 255 252 249 249
325 322 318 315 313 310 307 306 307 307 308 307 305 304 280 250 277 266 259 252 244 231 224 213 221 225 272 237 225 302 256 263 268 264 256 246 253 247 240 255 259 254 250 248 242
334 329 324 319 315 312 307 303 301 301 301 299 297 294 265 260 272 265 253 245 241 236 229 229 222 212 232 254 251 275 281 273 250 249 244 225 264 242 244 251 256 256 253 250 243
338 331 326 320 316 313 313 310 299 294 297 294 288 279 253 267 258 250 250 244 236 233 233 229 221 234 237 284 267 257 243 268 216 228 233 195 256 267 253 247 245 252 256 255 250
345 339 332 325 318 310 309 310 304 295 292 286 271 251 258 248 249 246 237 236 237 231 223 222 203 220 208 229 259 227 259 241 272 200 165 208 267 249 228 226 245 252 253 251 253
359 354 346 339 338 326 320 312 302 289 275 270 248 258 236 229 228 222 210 214 208 202 193 198 204 222 218 207 233 239 244 249 250 192 225 242 256 260 257 253 252 262 261 259 258
357 356 352 347 350 343 344 344 324 307 271 239 253 245 237 218 249 243 241 211 193 181 194 194 213 219 214 219 238 262 263 262 268 253 249 254 265 263 267 268 260 257 258 259 257
7 3 358 358 7 5 5 65 41 330 297 279 261 260 254 254 266 248 220 183 184 210 176 173 231 228 230 228 236 241 254 259 264 252 259 277 276 274 261 261 255 252 252 253 256
8 2 359 357 29 359 21 6 343 336 264 285 258 255 258 229 237 244 209 209 217 219 201 214 238 208 204 214 223 235 239 250 253 277 256 283 281 277 252 242 254 252 249 252 250
5 359 356 359 14 2 12 335 337 341 283 276 253 341 300 239 242 228 219 205 203 228 207 234 249 198 195 222 208 239 233 242 248 242 259 237 283 280 277 241 234 244 241 241 246
5 0 5 13 7 5 343 335 335 112 289 8 29 7 327 269 330 345 207 212 229 198 179 221 204 200 217 223 187 236 175 212 226 233 275 227 258 270 98 255 257 248 246 252 250
6 4 4 10 18 3 354 338 0 209 244 341 35 348 341 305 292 328 200 234 293 234 239 250 68 219 225 93 188 135 116 101 130 198 240 237 217 278 267 278 263 284 251 199 167
7 2 7 5 1 354 356 354 206 225 356 3 331 328 318 304 286 240 206 215 214 195 230 236 228 195 178 134 156 192 162 188 210 201 242 182 200 256 319 289 261 271 247 281 288
6 2 15 10 359 354 2 348 251 8 10 329 331 325 321 22 339 342 287 244 230 265 308 223 234 199 186 216 182 197 189 206 229 221 242 165 225 246 255 265 292 297 280 282 293
360 20 19 1 356 10 11 46 13 341 331 332 333 354 338 331 340 336 315 276 321 226 236 253 248 196 203 210 189 175 213 234 282 14 273 218 253 269 249 263 311 355 7 34 51
5 5 12 4 27 34 48 42 331 334 329 334 332 302 329 356 355 343 309 44 355 351 339 282 280 157 145 183 239 214 164 185 218 224 228 245 259 256 236 220 53 50 50 56 52
13 17 11 15 33 34 40 333 310 324 338 322 317 314 327 341 330 326 278 321 13 342 327 285 242 261 170 211 197 180 202 221 256 231 236 254 239 4 39 87 84 67 61 59 56
8 17 5 22 36 22 359 331 314 315 339 326 301 330 335 323 321 316 321 305 347 336 323 358 296 261 235 129 295 256 230 203 206 197 233 303 264 60 88 85 87 76 65 56 56
354 330 358 25 27 11 327 313 296 309 330 319 308 323 318 311 322 311 326 328 328 335 339 1 316 297 230 195 30 227 228 249 243 345 224 220 242 124 116 93 76 73 59 55 50
5 359 348 14 19 352 343 311 330 324 306 311 301 318 335 315 321 314 306 316 324 315 311 339 295 323 310 320 329 269 224 215 214 228 224 222 235 173 171 129 82 70 58 50 45
29 17 340 318 329 320 318 284 307 324 306 309 308 318 325 305 313 307 308 316 317 302 325 328 298 306 302 296 298 282 259 251 228 224 221 231 242 206 153 117 75 59 62 55 47
22 348 307 294 288 293 332 292 297 313 320 302 298 293 305 292 282 292 303 310 301 307 310 300 288 300 289 307 313 315 298 239 236 251 258 249 246 81 108 110 76 57 54 49 44
355 333 296 287 302 285 295 301 301 309 299 302 296 293 283 297 306 297 292 286 274 279 290 287 284 295 285 298 312 285 331 327 257 229 250 246 256 203 108 69 51 51 60 54 37